• Join FlightAware (Why Join?)
  • Login
  • US Flag 
11:27AM EST


 

Airport Tracker/Info


-or-


 

Live Flight TrackerFlight Track Log ✈ N384GD ✈ 17-Feb-2014 ✈ KACT - KTKI

Flight Track Log - Related Links

Times and Time Zones

All times are in EST time to prevent confusion due to time zone crossing. See the N384GD flight status page for this flight to view local times or setup timezone preferences in your user account.

Time Position Orientation Groundspeed Altitude Reporting Facility
EST Latitude Longitude Course Direction KTS MPH feet Rate Location/Type
04:53PM 31.5858 -97.2192 54° Northeast 164 189 8,100  Level Fort Worth Center
04:54PM 31.6200 -97.1642 54° Northeast 194 223 9,000 384 Climbing Fort Worth Center
04:55PM 31.6667 -97.0875 54° Northeast 266 306 8,900 -48 Descending Fort Worth Center
04:56PM 31.7136 -97.0092 55° Northeast 286 329 8,900  Level Fort Worth Center
04:57PM 31.7915 -96.9823 61° Northeast  Level FlightAware Approximate
04:57PM 31.7617 -96.9319 54° Northeast 291 335 8,900  Level Fort Worth Center
04:58PM 31.8094 -96.8522 55° Northeast 295 339 8,900  Level Fort Worth Center
04:59PM 31.8561 -96.7714 56° Northeast 296 341 8,900 48 Level Fort Worth Center
05:00PM 31.9131 -96.6803 54° Northeast 294 338 9,000 -145 Climbing Fort Worth Center
05:01PM 31.9753 -96.6233 38° Northeast 288 331 8,600 -435 Descending Fort Worth Center
05:02PM 32.0489 -96.5822 25° Northeast 292 336 8,100 -339 Descending Fort Worth Center
05:03PM 32.1208 -96.5442 24° Northeast 285 328 7,900 -97 Descending Fort Worth Center
05:04PM 32.1894 -96.5067 25° Northeast 275 316 7,900  Level Fort Worth Center
05:05PM 32.2692 -96.4628 25° Northeast 273 314 7,900 -290 Level Fort Worth Center
05:06PM 32.3422 -96.4225 25° Northeast 270 311 7,300 -387 Descending Fort Worth Center
05:07PM 32.4092 -96.3864 24° Northeast 265 305 7,100 -629 Descending Fort Worth Center
05:08PM 32.4761 -96.3861 360° North 263 303 6,000 -968 Descending Fort Worth Center
05:10PM 32.5450 -96.4197 338° Northwest 250 288 5,100 -432 Descending Fort Worth Center
05:11PM 32.6128 -96.4311 352° North 246 283 5,100 -48 Level Fort Worth Center
05:12PM 32.6847 -96.4436 352° North 243 280 5,000 -435 Descending Fort Worth Center
05:13PM 32.7519 -96.4381 North 241 277 4,200 -629 Descending Fort Worth Center
05:14PM 32.8219 -96.4322 North 236 272 3,700 -484 Descending Fort Worth Center
05:15PM 32.8789 -96.4817 324° Northwest 257 296 3,200 -532 Descending Fort Worth Center
05:16PM 32.9472 -96.5189 335° Northwest 252 290 2,600 -484 Descending Fort Worth Center
05:17PM 33.0072 -96.5486 337° Northwest 240 276 2,200 -242 Descending Fort Worth Center
05:18PM 33.0631 -96.5756 338° Northwest 204 235 2,100 -194 Descending Fort Worth Center
05:19PM 33.1061 -96.5914 343° North 165 190 1,800 -484 Descending Fort Worth Center
05:20PM 33.1458 -96.5900 North 134 154 1,100 -484 Descending Fort Worth Center
05:21PM 33.1775 -96.5894 North 124 143 800 -290 Descending Fort Worth Center
05:23PM 33.1771 -96.5888 344° North  Level Estimated
05:30PM 33.1771 -96.5888 344° North  Level Estimated